Regional Weather Roundup
Issued by NWS Grand Forks, ND

Home | Current Version | Previous Version | Text Only | Print | Product List | Glossary On
Versions: 1 2 3 4 5 6 7 8 9 10 11 12 13 14 15 16 17 18 19 20 21 22 23 24 25 26 27 28 29 30 31 32 33 34 35 36 37 38 39 40 41 42 43 44 45 46 47 48 49 50
000
ASUS43 KFGF 281031
RWRFGF
PRAIRIE TO PINES  WEATHER ROUNDUP
NATIONAL WEATHER SERVICE EASTERN NORTH DAKOTA/GRAND FORKS ND
500 AM CDT FRI AUG 28 2015

 **SATELLITE DATA USED TO AUGMENT SKY COVER AT AUTOMATED STATIONS**
 *****  WEATHER ACROSS EASTERN NORTH DAKOTA  *****

CITY           SKY/WX    TMP DP  RH WIND       PRES   REMARKS
GRAND FORKS    PTCLDY    63  62  97 S6        29.85R FOG
GRAND FRKS AFB PTCLDY    63  62  97 SW5       29.85R
GRAND FRKS NWS   N/A     63 N/A N/A SW6         N/A
DEVILS LAKE    CLOUDY    66  57  72 SW9       29.85S
FARGO          PTCLDY    66  64  93 S8        29.90S
WAHPETON ARPT  CLOUDY    61  59  94 SE7       29.93S VSB 1/2
$$

 ***** WEATHER ACROSS CENTRAL AND WESTERN NORTH DAKOTA  *****

CITY           SKY/WX    TMP DP  RH WIND       PRES   REMARKS
BISMARCK       PTCLDY    61  59  93 CALM      29.91S
MINOT          CLEAR     68  58  70 SW15      29.82S
JAMESTOWN      CLEAR     61  59  93 S3        29.89F
MINOT AFB      CLEAR     66  64  91 SW10      29.80S
GARRISON         N/A     63  58  83 SW3       29.88R
WILLISTON      CLEAR     65  62  90 S3        29.86S
DICKINSON      PTCLDY    60  54  80 S7        29.90F
HETTINGER      PTCLDY    57  54  89 CALM      29.96S
$$

 *****  OTHER AIRPORT OBSERVATIONS IN OUR AREA  *****

CITY           SKY/WX    TMP DP  RH WIND       PRES   REMARKS
WALHALLA       FAIR      66  66 100 MISG      29.83F
GRAFTON AIRPOR FAIR      63  63 100 S5        29.86F FOG
VALLEY CITY AR FOG       59  59 100 S6        29.90F VSB<1/4
CANDO          FAIR      66  63  88 CALM      29.87S
CAVALIER APRT  FAIR      64  64 100 SE5       29.82F
GWINNER          N/A     63  63 100 SW6       29.92F
SHEYENNE NWR     N/A     59  59  99 CALM      29.95S
ROLLA          CLOUDY    61  61 100 S6        29.87F
 ***** THE ABOVE OBSERVATIONS ARE NON NWS ARE NOT QUALITY
       CONTROLLED AND MAY MIS-REPORT RAIN FOR SNOW...
$$

  *****  WEATHER ACROSS NORTHERN MINNESOTA  *****

CITY           SKY/WX    TMP DP  RH WIND       PRES   REMARKS
FLAG ISLAND    MOCLDY    64  63  94 S5        29.86F FOG
WARROAD        MOCLDY    61  55  82 CALM      29.88S FOG
ROSEAU         PTCLDY    63  57  82 CALM      29.88R
HALLOCK        MOCLDY    64  63  94 S7        29.84F
THF RVR FALLS  CLOUDY   N/A N/A N/A S6        29.89R
BAUDETTE       FOG       59  58  96 SE5       29.90R VSB 1
WASKISH        CLEAR     63  61  94 SE6       29.90F
CROOKSTON      PTCLDY    64  63  94 S6        29.89R
STEPHEN NDAWN    N/A     64  64 100 S7          N/A
GREENBUSH NDAW   N/A     64  64 100 S5          N/A
$$
  *****  WEATHER ACROSS CENTRAL AND WEST MINNESOTA  *****

CITY           SKY/WX    TMP DP  RH WIND       PRES   REMARKS
FOSSTON        PTCLDY    63  63 100 S8        29.92S
BEMIDJI        FOG       63  63  99 S5        29.93S VSB 1/2
PARK RAPIDS    FOG       64  63  96 S6        29.96R VSB 3/4
ELBOW LAKE     FAIR      60  60  99 SE7       29.95S
WADENA         DRZL/FOG  63  63 100 S3        29.96R VSB 1/4
DETROIT LAKES  CLOUDY    64  63  94 S7        29.94F FOG
MOORHEAD       MOCLDY    63  63 100 S9        29.91F
FERGUS FALLS   FOG       64  64 100 S7        29.94S VSB 3/4
MORRIS MN      CLEAR     59  57  94 SE6       29.95S FOG
STAPLES        CLOUDY    61  61 100 S6        29.96S
$$
  *****  WEATHER ELSEWHERE ACROSS MINNESOTA  *****

CITY           SKY/WX    TMP DP  RH WIND       PRES   REMARKS
DULUTH         CLOUDY    60  58  92 SW6       29.97F
INTRNTL FALLS  MOCLDY    61  60  97 CALM      29.91S
ELY            MOCLDY    57  55  94 CALM      29.96F
CLOQUET        CLOUDY    61  57  88 CALM      29.98R
WHEATON        FOG       61  59  94 SE3       29.95S VSB 1/2
BRAINERD       MOCLDY    59  59 100 S5        29.97S
HIBBING        CLOUDY    56  56 100 CALM      29.97R
ALEXANDRIA     CLEAR     61  61 100 S7        29.97S
SAINT CLOUD    CLEAR     59  58  96 S3        29.98S
MINNEAPOLIS    CLOUDY    64  60  87 SE7       29.99S
$$

  *****  WEATHER ACROSS SOUTH DAKOTA  *****

CITY           SKY/WX    TMP DP  RH WIND       PRES   REMARKS
SIOUX FALLS    CLOUDY    64  62  93 E8        29.91S
BROOKINGS      CLOUDY    64  61  88 SE6       29.96R
WATERTOWN      CLOUDY    65  63  93 S5        29.95S
HURON          CLOUDY    67  65  93 E3        29.92S
SISSETON         N/A     62  61  96 S9        29.92S
ABERDEEN       MOCLDY    60  59  96 S5        29.93R FOG
MITCHELL       CLOUDY    66  65  96 SE6       29.89F
PIERRE         CLOUDY    68  67  96 N3        29.91S
MOBRIDGE       CLOUDY    64  64 100 SE3       29.92S
RAPID CITY     CLEAR     57  54  89 NW7       29.99R
$$

  *****  SOME WEATHER IN NEARBY STATES *****

CITY           SKY/WX    TMP DP  RH WIND       PRES   REMARKS
GLASGOW MT     CLEAR     60  51  72 CALM      29.88R
GREAT FALLS MT CLOUDY    65  38  36 SW12      30.04S HAZE
CHEYENNE WY    MOCLDY    55  51  86 NW9       30.22F
SCOTTSBLUFF NE CLEAR     57  55  93 NW6       30.07S
OMAHA NE       LGT RAIN  69  66  90 SE20      29.83F
DES MOINES IA  LGT RAIN  65  60  84 E12       29.99F
DAVENPORT IA   CLOUDY    62  58  86 S5        30.09R
CHICAGO IL     PTCLDY    59  55  87 S3        30.11F
EAU CLAIRE WI  CLOUDY    62  58  86 S6        30.03S
LA CROSSE WI   CLOUDY    65  60  84 S8        30.05F
$$

  *****  SOME NATIONAL WEATHER *****

CITY           SKY/WX    TMP DP  RH WIND       PRES   REMARKS
LA GUARDIA NY  PTCLDY    66  55  67 N3        30.13S
RALEIGH NC     PTCLDY    62  60  93 CALM      30.14S
ATLANTA GA     MOCLDY    70  66  88 E7        30.07S
NEW ORLEANS LA CLEAR     72  65  78 CALM      29.96S
OKLAHOMA CITY  CLOUDY    74  63  68 S8        29.99R
ALBUQUERQUE NM PTCLDY    65  54  67 SE7       30.20S
SALT LAKE CITY FAIR      69  46  43 S8        30.17S
LOS ANGELES CA FAIR      73  69  87 CALM      29.89F
BOISE ID       FAIR      74  36  25 E7        30.01F
SEATTLE WA     MOCLDY    66  48  52 SW7       29.99R
$$

*** WEATHER ACROSS MANITOBA...SASKATCHEWAN AND ONTARIO ***
                ***ONTARIO***

CITY           SKY/WX    TMP DP  RH WIND       PRES   REMARKS
GERALDTON      PTCLDY    46  45  93 S5        29.95R
THUNDER BAY    MOCLDY    50  48  93 NW2       29.96F
SIOUX LOOKOUT  CLOUDY    57  57 100 S5        29.88S
TORONTO        PTCLDY    54  50  87 CALM      30.18R
BIG TROUT LK   FOG       54  54 100 SE3       29.84F VSB 1
PICKLE LAKE    NOT AVBL
DRYDEN         MOCLDY    61  59  94 S8        29.89S
KENORA         MOCLDY    63  63 100 SW6       29.87S
$$
                *** MANITOBA***

CITY           SKY/WX    TMP DP  RH WIND       PRES   REMARKS
BRANDON        PTCLDY    61  57  88 S5        29.79S
DAUPHIN        PTCLDY    61  57  88 W8        29.75R
ISLAND LAKE    MOCLDY    57  55  94 S5        29.81S
PILOT MOUND      N/A     61  61 100 SE6         N/A
THE PAS        PTCLDY    57  57 100 S3        29.75R
THOMPSON       MOCLDY    43  41  93 E3        29.75F
WINNIPEG       LGT RAIN  66  63  88 NW7       29.82F
LYNN LAKE      MOCLDY    55  50  82 MISG      29.70F
CHURCHILL      PTCLDY    46  46 100 NW3       29.75S
$$
                ***SASKATCHEWAN***

CITY           SKY/WX    TMP DP  RH WIND       PRES   REMARKS
ESTEVAN        MOCLDY    61  57  88 SW7       29.82S
KINDERSLEY     CLOUDY    54  52  94 NE6       29.84R
LLOYDMINSTER   CLOUDY    61  55  82 NW14G20   29.85R
PRINCE ALBERT  FOG       48  48 100 E2        29.78F VSB 1/2
REGINA         PTCLDY    55  55 100 N3        29.83
YORKTON        CLEAR     61  57  88 W7        29.79R
N. BATTLEFORD  MOCLDY    55  55 100 E5        29.83S
LA RONGE       CLEAR     57  54  88 S6        29.72F
SASKATOON      MOCLDY    55  55 100 NW6       29.84S
SWIFT CURRENT  CLEAR     57  50  77 SW15      29.85S HAZE
$$
NOTE: THESE ARE AUTOMATED STATIONS WITH LIMITED QUALITY CONTROL
      "FAIR" INDICATES FEW OR NO CLOUDS BELOW 12,000 FEET WITH NO
      SIGNIFICANT WEATHER AND/OR OBSTRUCTIONS TO VISIBILITY.
      SKY/WX - SKY CONDITION AND SIGNIFICANT WEATHER.
      TMP - AIR TEMPERATURE.    DP   - DEWPOINT TEMPERATURE.
      RH  - RELATIVE HUMIDITY.  PRES - PRESSURE.
      HX  - HEAT INDEX.         WCI  - WIND CHILL INDEX.
$


USA.gov is the U.S. government's official web portal to all federal, state and local government web resources and services.